Вернуться в каталог

STARLINK-32177

АктивенСвязьVLEO
NORAD 60441·PAYLOAD·🇺🇸 United States

Запущен Aug 12, 2024 с Cape Canaveral Space Force Station

Loading…

Ближайшие Пролёты (ближайшие 24 часа)

TLE

СвежийSource: CelesTrak SupGP

Эпоха: Sep 14, 2026, 14:27 UTC

1 60441C 24144S   26257.60256944 -.00034223  00000+0 -10115-2 0  2570
2 60441  53.1584  55.1635 0000925  71.7621   6.5628 15.34395554    10

Отслеживайте STARLINK-32177 в реальном времени с AllMySat

Download on the App Store